,,Stat6,,Stat2,,Stat8,,Stat9,,Stat10,,Wind1,,Wind1,
time,status,PA1M_AVG,status,PR1M_SUM,status,RH1M_AVG,status,SR1M_AVG,status,TA1M_AVG,status,W1dAve1m,status,W1sAve1m,
2008-06-19, 00:00:00,VALID,917.849,VALID,0,VALID,100,VALID,-0.0679233,VALID,17.8571,VALID,153,VALID,1.96224,
2008-06-19, 00:01:00,VALID,917.825,VALID,0,VALID,100,VALID,-0.0339617,VALID,17.8634,VALID,155,VALID,2.35472,
2008-06-19, 00:02:00,VALID,917.793,VALID,0,VALID,100,VALID,-0.0339617,VALID,17.8636,VALID,179,VALID,1.49698,
2008-06-19, 00:03:00,VALID,917.782,VALID,0,VALID,100,VALID,-0.0169808,VALID,17.8731,VALID,171,VALID,1.99851,
2008-06-19, 00:04:00,VALID,917.764,VALID,0,VALID,100,VALID,-0.0339617,VALID,17.8668,VALID,164,VALID,2.18786,
2008-06-19, 00:05:00,VALID,917.758,VALID,0,VALID,100,VALID,-0.0849042,VALID,17.8472,VALID,168,VALID,1.69604,
2008-06-19, 00:06:00,VALID,917.736,VALID,0,VALID,100,VALID,-0.0509425,VALID,17.8543,VALID,153,VALID,2.02274,
2008-06-19, 00:07:00,VALID,917.708,VALID,0,VALID,100,VALID,-0.0679233,VALID,17.8543,VALID,153,VALID,1.29226,
2008-06-19, 00:08:00,VALID,917.698,VALID,0,VALID,100,VALID,-0.0679233,VALID,17.8476,VALID,180,VALID,0.912464,
2008-06-19, 00:09:00,VALID,917.674,VALID,0,VALID,100,VALID,-0.0509425,VALID,17.8474,VALID,171,VALID,0.426121,
2008-06-19, 00:10:00,VALID,917.653,VALID,0,VALID,100,VALID,-0.0679233,VALID,17.8279,VALID,198,VALID,0.901296,
2008-06-19, 00:11:00,VALID,917.643,VALID,0,VALID,100,VALID,-0.101885,VALID,17.8182,VALID,200,VALID,0.480741,
2008-06-19, 00:12:00,VALID,917.602,VALID,0,VALID,100,VALID,-0.0679233,VALID,17.8152,VALID,227,VALID,0,
2008-06-19, 00:13:00,VALID,917.598,VALID,0,VALID,100,VALID,-0.0679233,VALID,17.8152,VALID,253,VALID,0.613636,
2008-06-19, 00:14:00,VALID,917.58,VALID,0,VALID,100,VALID,-0.0169808,VALID,17.8212,VALID,231,VALID,0.538281,
2008-06-19, 00:15:00,VALID,917.55,VALID,0,VALID,100,VALID,-0.0679233,VALID,17.8474,VALID,208,VALID,0.552871,
2008-06-19, 00:16:00,VALID,917.54,VALID,0,VALID,100,VALID,-0.0509425,VALID,17.8636,VALID,173,VALID,0.632068,
2008-06-19, 00:17:00,VALID,917.518,VALID,0,VALID,100,VALID,-0.0509425,VALID,17.8703,VALID,151,VALID,0.969336,
2008-06-19, 00:18:00,VALID,917.506,VALID,0,VALID,100,VALID,-0.0339617,VALID,17.8668,VALID,144,VALID,0.969512,
2008-06-19, 00:19:00,VALID,917.485,VALID,0,VALID,100,VALID,-0.0679233,VALID,17.8502,VALID,162,VALID,1.10629,
2008-06-19, 00:20:00,VALID,917.476,VALID,0,VALID,100,VALID,-0.0509425,VALID,17.8736,VALID,146,VALID,0.935724,
2008-06-19, 00:21:00,VALID,917.472,VALID,0,VALID,100,VALID,-0.0169808,VALID,17.8736,VALID,144,VALID,0.981944,
2008-06-19, 00:22:00,VALID,917.464,VALID,0,VALID,100,VALID,-0.0679233,VALID,17.8604,VALID,151,VALID,1.07603,
2008-06-19, 00:23:00,VALID,917.459,VALID,0,VALID,100,VALID,0,VALID,17.8432,VALID,149,VALID,0.851758,
2008-06-19, 00:24:00,VALID,917.449,VALID,0,VALID,100,VALID,0.0509425,VALID,17.8303,VALID,148,VALID,1.02553,
2008-06-19, 00:25:00,VALID,917.43,VALID,0,VALID,100,VALID,0.0509425,VALID,17.8134,VALID,154,VALID,1.37003,
2008-06-19, 00:26:00,VALID,917.406,VALID,0,VALID,100,VALID,0.0339617,VALID,17.843,VALID,143,VALID,1.40153,
2008-06-19, 00:27:00,VALID,917.385,VALID,0,VALID,100,VALID,0.0509425,VALID,17.846,VALID,160,VALID,1.21373,
2008-06-19, 00:28:00,VALID,917.352,VALID,0,VALID,100,VALID,0.0339617,VALID,17.8333,VALID,155,VALID,1.61684,
2008-06-19, 00:29:00,VALID,917.328,VALID,0,VALID,100,VALID,0.0509425,VALID,17.8365,VALID,130,VALID,1.5181,
2008-06-19, 00:30:00,VALID,917.289,VALID,0,VALID,100,VALID,0.0849042,VALID,17.8428,VALID,152,VALID,1.9739,
2008-06-19, 00:31:00,VALID,917.262,VALID,0,VALID,100,VALID,0.0339617,VALID,17.8493,VALID,162,VALID,2.34829,
2008-06-19, 00:32:00,VALID,917.24,VALID,0,VALID,100,VALID,0,VALID,17.8847,VALID,151,VALID,2.68296,
2008-06-19, 00:33:00,VALID,917.207,VALID,0,VALID,100,VALID,0.0679233,VALID,17.9174,VALID,148,VALID,2.19549,
2008-06-19, 00:34:00,VALID,917.194,VALID,0,VALID,100,VALID,0.0339617,VALID,17.9236,VALID,150,VALID,1.85677,
2008-06-19, 00:35:00,VALID,917.172,VALID,0,VALID,100,VALID,0.0509425,VALID,17.9271,VALID,162,VALID,1.96912,
2008-06-19, 00:36:00,VALID,917.155,VALID,0,VALID,100,VALID,0.0509425,VALID,17.9239,VALID,163,VALID,1.99163,
2008-06-19, 00:37:00,VALID,917.147,VALID,0,VALID,100,VALID,0.0509425,VALID,17.9074,VALID,147,VALID,2.12754,
2008-06-19, 00:38:00,VALID,917.157,VALID,0,VALID,100,VALID,0.0169808,VALID,17.9081,VALID,148,VALID,1.41424,
2008-06-19, 00:39:00,VALID,917.136,VALID,0,VALID,100,VALID,0.0339617,VALID,17.9083,VALID,152,VALID,2.07048,
2008-06-19, 00:40:00,VALID,917.126,VALID,0,VALID,100,VALID,0.0679233,VALID,17.9046,VALID,146,VALID,2.04506,
2008-06-19, 00:41:00,VALID,917.113,VALID,0,VALID,100,VALID,0.0339617,VALID,17.9051,VALID,142,VALID,1.85103,
2008-06-19, 00:42:00,VALID,917.12,VALID,0,VALID,100,VALID,0.0169808,VALID,17.8951,VALID,152,VALID,2.16116,
2008-06-19, 00:43:00,VALID,917.086,VALID,0,VALID,100,VALID,0,VALID,17.8923,VALID,149,VALID,2.03925,
2008-06-19, 00:44:00,VALID,917.063,VALID,0,VALID,100,VALID,0.0169808,VALID,17.8951,VALID,153,VALID,1.649,
2008-06-19, 00:45:00,VALID,917.042,VALID,0,VALID,100,VALID,0.0509425,VALID,17.8886,VALID,157,VALID,2.0878,
2008-06-19, 00:46:00,VALID,917.022,VALID,0,VALID,100,VALID,0.0169808,VALID,17.8917,VALID,164,VALID,2.04797,
2008-06-19, 00:47:00,VALID,916.981,VALID,0,VALID,100,VALID,0.0169808,VALID,17.8852,VALID,158,VALID,2.256,
2008-06-19, 00:48:00,VALID,916.958,VALID,0,VALID,100,VALID,0.0339617,VALID,17.8822,VALID,151,VALID,2.35193,
2008-06-19, 00:49:00,VALID,916.907,VALID,0,VALID,100,VALID,0,VALID,17.8657,VALID,154,VALID,1.68022,
2008-06-19, 00:50:00,VALID,916.897,VALID,0,VALID,100,VALID,0.0509425,VALID,17.8787,VALID,154,VALID,2.10732,
2008-06-19, 00:51:00,VALID,916.859,VALID,0,VALID,100,VALID,0,VALID,17.8891,VALID,158,VALID,2.12664,
2008-06-19, 00:52:00,VALID,916.852,VALID,0,VALID,100,VALID,0.0169808,VALID,17.8949,VALID,153,VALID,1.57222,
2008-06-19, 00:53:00,VALID,916.836,VALID,0,VALID,100,VALID,0,VALID,17.9088,VALID,144,VALID,1.51467,
2008-06-19, 00:54:00,VALID,916.82,VALID,0,VALID,100,VALID,-0.0849042,VALID,17.9025,VALID,163,VALID,1.11484,
2008-06-19, 00:55:00,VALID,916.805,VALID,0,VALID,100,VALID,-0.0679233,VALID,17.9027,VALID,155,VALID,0.798781,
2008-06-19, 00:56:00,VALID,916.811,VALID,0,VALID,100,VALID,-0.0679233,VALID,17.88,VALID,175,VALID,1.54055,
2008-06-19, 00:57:00,VALID,916.797,VALID,0,VALID,100,VALID,-0.0679233,VALID,17.8773,VALID,172,VALID,1.65792,
2008-06-19, 00:58:00,VALID,916.756,VALID,0,VALID,100,VALID,-0.0679233,VALID,17.8539,VALID,176,VALID,1.84023,
2008-06-19, 00:59:00,VALID,916.745,VALID,0,VALID,100,VALID,-0.0339617,VALID,17.8543,VALID,174,VALID,1.66388,
2008-06-19, 01:00:00,VALID,916.713,VALID,0,VALID,100,VALID,-0.0509425,VALID,17.8506,VALID,175,VALID,1.81328,
2008-06-19, 01:01:00,VALID,916.705,VALID,0,VALID,100,VALID,-0.0679233,VALID,17.8537,VALID,171,VALID,1.51445,
2008-06-19, 01:02:00,VALID,916.675,VALID,0,VALID,100,VALID,-0.0339617,VALID,17.8504,VALID,181,VALID,1.85762,
2008-06-19, 01:03:00,VALID,916.639,VALID,0,VALID,100,VALID,-0.0679233,VALID,17.8541,VALID,186,VALID,1.71503,
2008-06-19, 01:04:00,VALID,916.617,VALID,0,VALID,100,VALID,-0.0339617,VALID,17.8478,VALID,179,VALID,1.74485,
2008-06-19, 01:05:00,VALID,916.614,VALID,0,VALID,100,VALID,-0.0339617,VALID,17.8212,VALID,175,VALID,1.80273,
2008-06-19, 01:06:00,VALID,916.599,VALID,0,VALID,100,VALID,-0.0169808,VALID,17.818,VALID,162,VALID,2.16908,
2008-06-19, 01:07:00,VALID,916.576,VALID,0,VALID,100,VALID,0,VALID,17.8115,VALID,184,VALID,1.92151,
2008-06-19, 01:08:00,VALID,916.574,VALID,0,VALID,100,VALID,-0.0509425,VALID,17.8187,VALID,166,VALID,2.37348,
2008-06-19, 01:09:00,VALID,916.56,VALID,0,VALID,100,VALID,-0.0339617,VALID,17.8277,VALID,163,VALID,2.18108,
2008-06-19, 01:10:00,VALID,916.543,VALID,0,VALID,100,VALID,-0.0509425,VALID,17.8346,VALID,158,VALID,2.39028,
2008-06-19, 01:11:00,VALID,916.528,VALID,0,VALID,100,VALID,-0.0339617,VALID,17.8506,VALID,153,VALID,2.34484,
2008-06-19, 01:12:00,VALID,916.509,VALID,0,VALID,100,VALID,0.0169808,VALID,17.8733,VALID,151,VALID,2.244,
2008-06-19, 01:13:00,VALID,916.485,VALID,0,VALID,100,VALID,-0.0679233,VALID,17.89,VALID,151,VALID,2.27471,
2008-06-19, 01:14:00,VALID,916.451,VALID,0,VALID,100,VALID,-0.0169808,VALID,17.9055,VALID,146,VALID,2.9315,
2008-06-19, 01:15:00,VALID,916.441,VALID,0,VALID,100,VALID,-0.0339617,VALID,17.9352,VALID,157,VALID,2.03725,
2008-06-19, 01:16:00,VALID,916.408,VALID,0,VALID,100,VALID,-0.0509425,VALID,17.9516,VALID,154,VALID,2.56211,
2008-06-19, 01:17:00,VALID,916.379,VALID,0,VALID,100,VALID,-0.0169808,VALID,17.9445,VALID,158,VALID,2.65987,
2008-06-19, 01:18:00,VALID,916.351,VALID,0,VALID,100,VALID,-0.0679233,VALID,17.9542,VALID,161,VALID,2.55396,
2008-06-19, 01:19:00,VALID,916.346,VALID,0,VALID,100,VALID,-0.0679233,VALID,17.9579,VALID,159,VALID,1.91518,
2008-06-19, 01:20:00,VALID,916.329,VALID,0,VALID,100,VALID,-0.0339617,VALID,17.9477,VALID,164,VALID,2.31403,
2008-06-19, 01:21:00,VALID,916.292,VALID,0,VALID,100,VALID,-0.0169808,VALID,17.9579,VALID,166,VALID,2.69604,
2008-06-19, 01:22:00,VALID,916.286,VALID,0,VALID,100,VALID,0,VALID,17.9574,VALID,161,VALID,2.7375,
2008-06-19, 01:23:00,VALID,916.27,VALID,0,VALID,100,VALID,0,VALID,17.9665,VALID,160,VALID,2.756,
2008-06-19, 01:24:00,VALID,916.264,VALID,0,VALID,100,VALID,0.0849042,VALID,17.9598,VALID,168,VALID,2.61376,
2008-06-19, 01:25:00,VALID,916.249,VALID,0,VALID,100,VALID,0.0509425,VALID,17.9727,VALID,161,VALID,1.50316,
2008-06-19, 01:26:00,VALID,916.238,VALID,0,VALID,100,VALID,0.0849042,VALID,17.9561,VALID,161,VALID,1.45827,
2008-06-19, 01:27:00,VALID,916.221,VALID,0,VALID,100,VALID,0.0679233,VALID,17.9338,VALID,164,VALID,2.04488,
2008-06-19, 01:28:00,VALID,916.226,VALID,0,VALID,100,VALID,0.0679233,VALID,17.9334,VALID,157,VALID,1.72605,
2008-06-19, 01:29:00,VALID,916.203,VALID,0,VALID,100,VALID,0.0679233,VALID,17.9303,VALID,167,VALID,2.50391,
2008-06-19, 01:30:00,VALID,916.201,VALID,0,VALID,100,VALID,0.0509425,VALID,17.9271,VALID,168,VALID,2.58949,
2008-06-19, 01:31:00,VALID,916.188,VALID,0,VALID,100,VALID,0.0679233,VALID,17.9204,VALID,177,VALID,2.0298,
2008-06-19, 01:32:00,VALID,916.176,VALID,0,VALID,100,VALID,0.118866,VALID,17.9172,VALID,165,VALID,2.66183,
2008-06-19, 01:33:00,VALID,916.18,VALID,0,VALID,100,VALID,0.0509425,VALID,17.8912,VALID,164,VALID,2.62376,
2008-06-19, 01:34:00,VALID,916.177,VALID,0,VALID,100,VALID,0.0679233,VALID,17.8912,VALID,167,VALID,3.50608,
2008-06-19, 01:35:00,VALID,916.187,VALID,0,VALID,100,VALID,0.0679233,VALID,17.9046,VALID,165,VALID,2.79506,
2008-06-19, 01:36:00,VALID,916.171,VALID,0,VALID,100,VALID,0.0679233,VALID,17.9144,VALID,155,VALID,3.00142,
2008-06-19, 01:37:00,VALID,916.195,VALID,0,VALID,100,VALID,0.0849042,VALID,17.9236,VALID,163,VALID,2.34775,
2008-06-19, 01:38:00,VALID,916.159,VALID,0,VALID,100,VALID,-0.0509425,VALID,17.925,VALID,155,VALID,2.87573,
2008-06-19, 01:39:00,VALID,916.146,VALID,0,VALID,100,VALID,-0.0509425,VALID,17.9153,VALID,167,VALID,3.04799,
2008-06-19, 01:40:00,VALID,916.13,VALID,0,VALID,100,VALID,-0.0679233,VALID,17.9252,VALID,157,VALID,2.73679,
2008-06-19, 01:41:00,VALID,916.119,VALID,0,VALID,99.9728,VALID,-0.0509425,VALID,17.9349,VALID,165,VALID,2.24637,
2008-06-19, 01:42:00,VALID,916.092,VALID,0,VALID,99.8388,VALID,-0.0509425,VALID,17.9481,VALID,162,VALID,2.56117,
2008-06-19, 01:43:00,VALID,916.089,VALID,0,VALID,99.5399,VALID,-0.101885,VALID,17.9574,VALID,156,VALID,3.18464,
2008-06-19, 01:44:00,VALID,916.062,VALID,0,VALID,99.1445,VALID,-0.0509425,VALID,18.0061,VALID,159,VALID,3.0026,
2008-06-19, 01:45:00,VALID,916.056,VALID,0,VALID,98.6803,VALID,-0.0849042,VALID,18.0649,VALID,169,VALID,2.83394,
2008-06-19, 01:46:00,VALID,916.029,VALID,0,VALID,98.4375,VALID,-0.0509425,VALID,18.1135,VALID,152,VALID,2.76935,
2008-06-19, 01:47:00,VALID,916.022,VALID,0,VALID,98.3573,VALID,-0.0679233,VALID,18.1367,VALID,158,VALID,2.57813,
2008-06-19, 01:48:00,VALID,916.025,VALID,0,VALID,98.3459,VALID,-0.0509425,VALID,18.1522,VALID,163,VALID,2.09792,
2008-06-19, 01:49:00,VALID,916.017,VALID,0,VALID,98.2823,VALID,-0.0849042,VALID,18.1622,VALID,173,VALID,2.83212,
2008-06-19, 01:50:00,VALID,916.017,VALID,0,VALID,98.2429,VALID,-0.0849042,VALID,18.1717,VALID,166,VALID,2.67969,
2008-06-19, 01:51:00,VALID,916.014,VALID,0,VALID,98.1501,VALID,-0.0339617,VALID,18.165,VALID,150,VALID,2.90443,
2008-06-19, 01:52:00,VALID,916.014,VALID,0,VALID,98.1297,VALID,-0.0679233,VALID,18.1719,VALID,156,VALID,2.61849,
2008-06-19, 01:53:00,VALID,915.992,VALID,0,VALID,98.2111,VALID,-0.0849042,VALID,18.1687,VALID,158,VALID,2.28482,
2008-06-19, 01:54:00,VALID,915.984,VALID,0,VALID,98.1933,VALID,-0.0849042,VALID,18.1587,VALID,155,VALID,2.46037,
2008-06-19, 01:55:00,VALID,915.997,VALID,0,VALID,98.3726,VALID,-0.0849042,VALID,18.1527,VALID,158,VALID,2.24295,
2008-06-19, 01:56:00,VALID,915.978,VALID,0,VALID,98.501,VALID,-0.101885,VALID,18.1494,VALID,152,VALID,2.39658,
2008-06-19, 01:57:00,VALID,915.96,VALID,0,VALID,98.6193,VALID,-0.0339617,VALID,18.1233,VALID,140,VALID,1.5609,
2008-06-19, 01:58:00,VALID,915.952,VALID,0,VALID,98.7185,VALID,-0.0679233,VALID,18.0941,VALID,146,VALID,2.24009,
2008-06-19, 01:59:00,VALID,915.949,VALID,0,VALID,98.8227,VALID,-0.0509425,VALID,18.0714,VALID,153,VALID,2.06659,
2008-06-19, 02:00:00,VALID,915.935,VALID,0,VALID,98.9525,VALID,-0.0339617,VALID,18.0549,VALID,149,VALID,1.86301,
2008-06-19, 02:01:00,VALID,915.927,VALID,0,VALID,98.983,VALID,-0.0509425,VALID,18.0262,VALID,152,VALID,2.23114,
2008-06-19, 02:02:00,VALID,915.932,VALID,0,VALID,99.0033,VALID,-0.0679233,VALID,18.0068,VALID,153,VALID,2.40789,
2008-06-19, 02:03:00,VALID,915.924,VALID,0,VALID,99.0364,VALID,-0.101885,VALID,18.02,VALID,158,VALID,2.13608,
2008-06-19, 02:04:00,VALID,915.918,VALID,0,VALID,99.105,VALID,-0.101885,VALID,18.0165,VALID,155,VALID,2.08022,
2008-06-19, 02:05:00,VALID,915.905,VALID,0,VALID,99.0338,VALID,-0.0849042,VALID,18.0068,VALID,152,VALID,2.84928,
2008-06-19, 02:06:00,VALID,915.896,VALID,0,VALID,99.0084,VALID,-0.118866,VALID,18.0329,VALID,158,VALID,3.08194,
2008-06-19, 02:07:00,VALID,915.881,VALID,0,VALID,99.058,VALID,-0.101885,VALID,18.0526,VALID,155,VALID,1.34801,
2008-06-19, 02:08:00,VALID,915.856,VALID,0,VALID,99.0911,VALID,-0.0679233,VALID,18.029,VALID,163,VALID,2.75053,
2008-06-19, 02:09:00,VALID,915.85,VALID,0,VALID,99.1661,VALID,0,VALID,18.0285,VALID,151,VALID,2.05923,
2008-06-19, 02:10:00,VALID,915.845,VALID,0,VALID,99.1241,VALID,0.0169808,VALID,18.0216,VALID,152,VALID,2.31552,
2008-06-19, 02:11:00,VALID,915.826,VALID,0,VALID,99.0961,VALID,0.0509425,VALID,18.0216,VALID,166,VALID,2.25763,
2008-06-19, 02:12:00,VALID,915.828,VALID,0,VALID,98.852,VALID,0,VALID,18.0248,VALID,167,VALID,3.10738,
2008-06-19, 02:13:00,VALID,915.811,VALID,0,VALID,98.5468,VALID,0.0169808,VALID,18.0538,VALID,161,VALID,2.50382,
2008-06-19, 02:14:00,VALID,915.794,VALID,0,VALID,98.379,VALID,-0.0169808,VALID,18.096,VALID,165,VALID,1.78379,
2008-06-19, 02:15:00,VALID,915.792,VALID,0,VALID,98.2493,VALID,0,VALID,18.1156,VALID,156,VALID,1.78359,
2008-06-19, 02:16:00,VALID,915.766,VALID,0,VALID,98.2531,VALID,0.0169808,VALID,18.1293,VALID,164,VALID,2.10683,
2008-06-19, 02:17:00,VALID,915.754,VALID,0,VALID,98.2505,VALID,0,VALID,18.1156,VALID,149,VALID,1.84468,
2008-06-19, 02:18:00,VALID,915.746,VALID,0,VALID,98.2149,VALID,-0.0169808,VALID,18.1193,VALID,166,VALID,1.88697,
2008-06-19, 02:19:00,VALID,915.751,VALID,0,VALID,98.2327,VALID,0,VALID,18.1288,VALID,152,VALID,1.77162,
2008-06-19, 02:20:00,VALID,915.749,VALID,0,VALID,98.0814,VALID,0,VALID,18.1221,VALID,152,VALID,2.14974,
2008-06-19, 02:21:00,VALID,915.755,VALID,0,VALID,98.0267,VALID,0,VALID,18.1346,VALID,153,VALID,1.9593,
2008-06-19, 02:22:00,VALID,915.746,VALID,0,VALID,97.8907,VALID,0,VALID,18.1483,VALID,158,VALID,2.12324,
2008-06-19, 02:23:00,VALID,915.748,VALID,0,VALID,97.7826,VALID,0,VALID,18.161,VALID,157,VALID,1.83296,
2008-06-19, 02:24:00,VALID,915.76,VALID,0,VALID,97.5524,VALID,0,VALID,18.187,VALID,150,VALID,2.23088,
2008-06-19, 02:25:00,VALID,915.75,VALID,0,VALID,97.0603,VALID,0,VALID,18.2294,VALID,156,VALID,2.28616,
2008-06-19, 02:26:00,VALID,915.78,VALID,0,VALID,96.6229,VALID,0,VALID,18.3005,VALID,157,VALID,2.11433,
2008-06-19, 02:27:00,VALID,915.763,VALID,0,VALID,96.1104,VALID,0.0169808,VALID,18.3684,VALID,144,VALID,1.97215,
2008-06-19, 02:28:00,VALID,915.765,VALID,0,VALID,95.6743,VALID,0.0169808,VALID,18.4397,VALID,144,VALID,1.99006,
2008-06-19, 02:29:00,VALID,915.767,VALID,0,VALID,95.4695,VALID,0.0339617,VALID,18.4986,VALID,138,VALID,1.68786,
2008-06-19, 02:30:00,VALID,915.778,VALID,0,VALID,95.1084,VALID,0.0169808,VALID,18.5208,VALID,140,VALID,2.0327,
2008-06-19, 02:31:00,VALID,915.773,VALID,0,VALID,95.172,VALID,0.0339617,VALID,18.5697,VALID,143,VALID,1.32241,
2008-06-19, 02:32:00,VALID,915.771,VALID,0,VALID,95.1758,VALID,0.0169808,VALID,18.5792,VALID,140,VALID,1.59357,
2008-06-19, 02:33:00,VALID,915.764,VALID,0,VALID,95.116,VALID,0.0509425,VALID,18.5692,VALID,151,VALID,2.0372,
2008-06-19, 02:34:00,VALID,915.758,VALID,0,VALID,95.3729,VALID,0.0849042,VALID,18.5727,VALID,151,VALID,0.630035,
2008-06-19, 02:35:00,VALID,915.74,VALID,0,VALID,95.5649,VALID,0,VALID,18.5537,VALID,166,VALID,0.949128,
2008-06-19, 02:36:00,VALID,915.737,VALID,0,VALID,95.6984,VALID,0,VALID,18.5108,VALID,152,VALID,0.786515,
2008-06-19, 02:37:00,VALID,915.723,VALID,0,VALID,95.8243,VALID,0.0169808,VALID,18.5111,VALID,174,VALID,1.14276,
2008-06-19, 02:38:00,VALID,915.701,VALID,0,VALID,96.0443,VALID,0.0169808,VALID,18.4921,VALID,161,VALID,1.08612,
2008-06-19, 02:39:00,VALID,915.695,VALID,0,VALID,96.1257,VALID,-0.0169808,VALID,18.4668,VALID,160,VALID,1.6316,
2008-06-19, 02:40:00,VALID,915.697,VALID,0,VALID,96.1384,VALID,-0.0509425,VALID,18.4312,VALID,164,VALID,1.8505,
2008-06-19, 02:41:00,VALID,915.702,VALID,0,VALID,96.1893,VALID,-0.0339617,VALID,18.4182,VALID,173,VALID,1.28906,
2008-06-19, 02:42:00,VALID,915.69,VALID,0,VALID,96.2834,VALID,-0.0679233,VALID,18.4119,VALID,167,VALID,1.11793,
2008-06-19, 02:43:00,VALID,915.69,VALID,0,VALID,96.4703,VALID,-0.0679233,VALID,18.3857,VALID,148,VALID,1.39672,
2008-06-19, 02:44:00,VALID,915.685,VALID,0,VALID,96.6521,VALID,-0.0339617,VALID,18.3698,VALID,168,VALID,1.30741,
2008-06-19, 02:45:00,VALID,915.677,VALID,0,VALID,96.6419,VALID,0,VALID,18.3466,VALID,159,VALID,1.35938,
2008-06-19, 02:46:00,VALID,915.688,VALID,0,VALID,96.6725,VALID,-0.0509425,VALID,18.3336,VALID,145,VALID,1.69567,
2008-06-19, 02:47:00,VALID,915.679,VALID,0,VALID,96.525,VALID,0,VALID,18.3401,VALID,146,VALID,1.45274,
2008-06-19, 02:48:00,VALID,915.681,VALID,0,VALID,96.6127,VALID,-0.0169808,VALID,18.3661,VALID,142,VALID,0.464472,
2008-06-19, 02:49:00,VALID,915.673,VALID,0,VALID,96.4588,VALID,-0.0169808,VALID,18.3501,VALID,155,VALID,0.723958,
2008-06-19, 02:50:00,VALID,915.645,VALID,0,VALID,96.3571,VALID,-0.0169808,VALID,18.3626,VALID,151,VALID,0.983103,
2008-06-19, 02:51:00,VALID,915.636,VALID,0,VALID,96.2121,VALID,-0.0849042,VALID,18.3827,VALID,149,VALID,1.4375,
2008-06-19, 02:52:00,VALID,915.622,VALID,0,VALID,96.1816,VALID,-0.101885,VALID,18.402,VALID,156,VALID,1.48983,
2008-06-19, 02:53:00,VALID,915.627,VALID,0,VALID,96.0214,VALID,-0.0169808,VALID,18.4186,VALID,161,VALID,1.8287,
2008-06-19, 02:54:00,VALID,915.622,VALID,0,VALID,96.0545,VALID,-0.0169808,VALID,18.4409,VALID,173,VALID,1.15734,
2008-06-19, 02:55:00,VALID,915.618,VALID,0,VALID,96.099,VALID,-0.0679233,VALID,18.4374,VALID,169,VALID,0.80593,
2008-06-19, 02:56:00,VALID,915.619,VALID,0,VALID,96.1384,VALID,-0.0509425,VALID,18.4344,VALID,155,VALID,1.07958,
2008-06-19, 02:57:00,VALID,915.629,VALID,0,VALID,96.0456,VALID,0,VALID,18.4316,VALID,167,VALID,0.950945,
2008-06-19, 02:58:00,VALID,915.625,VALID,0,VALID,96.2147,VALID,-0.0339617,VALID,18.4344,VALID,156,VALID,0.301781,
2008-06-19, 02:59:00,VALID,915.641,VALID,0,VALID,96.2719,VALID,0,VALID,18.4247,VALID,162,VALID,0.684593,
2008-06-19, 03:00:00,VALID,915.648,VALID,0,VALID,96.4245,VALID,-0.0339617,VALID,18.4084,VALID,135,VALID,0.380766,
2008-06-19, 03:01:00,VALID,915.657,VALID,0,VALID,96.5644,VALID,-0.0169808,VALID,18.4082,VALID,156,VALID,0.210211,
2008-06-19, 03:02:00,VALID,915.65,VALID,0,VALID,96.703,VALID,0,VALID,18.3855,VALID,182,VALID,0,
2008-06-19, 03:03:00,VALID,915.634,VALID,0,VALID,96.8047,VALID,-0.0339617,VALID,18.3533,VALID,186,VALID,0.183966,
2008-06-19, 03:04:00,VALID,915.642,VALID,0,VALID,96.8937,VALID,0,VALID,18.3176,VALID,185,VALID,0.407924,
2008-06-19, 03:05:00,VALID,915.649,VALID,0,VALID,96.8518,VALID,-0.0509425,VALID,18.2884,VALID,241,VALID,0.652344,
2008-06-19, 03:06:00,VALID,915.639,VALID,0,VALID,97.0272,VALID,-0.0679233,VALID,18.2625,VALID,219,VALID,0.00486111,
2008-06-19, 03:07:00,VALID,915.631,VALID,0,VALID,97.3528,VALID,-0.0339617,VALID,18.2495,VALID,219,VALID,0,
2008-06-19, 03:08:00,VALID,915.633,VALID,0,VALID,97.677,VALID,-0.0339617,VALID,18.2465,VALID,219,VALID,0,
2008-06-19, 03:09:00,VALID,915.627,VALID,0,VALID,98.0102,VALID,0.0509425,VALID,18.2127,VALID,219,VALID,0,
2008-06-19, 03:10:00,VALID,915.62,VALID,0,VALID,98.2785,VALID,0,VALID,18.1742,VALID,219,VALID,0,
2008-06-19, 03:11:00,VALID,915.596,VALID,0,VALID,98.4527,VALID,0.0509425,VALID,18.1282,VALID,219,VALID,0,
2008-06-19, 03:12:00,VALID,915.598,VALID,0,VALID,98.5837,VALID,0.0679233,VALID,18.0828,VALID,219,VALID,0,
2008-06-19, 03:13:00,VALID,915.598,VALID,0,VALID,98.8494,VALID,0.0679233,VALID,18.0501,VALID,219,VALID,0,
2008-06-19, 03:14:00,VALID,915.602,VALID,0,VALID,99.0046,VALID,0.101885,VALID,17.995,VALID,219,VALID,0,
2008-06-19, 03:15:00,VALID,915.606,VALID,0,VALID,99.1813,VALID,0.0509425,VALID,17.9403,VALID,218,VALID,0,
2008-06-19, 03:16:00,VALID,915.587,VALID,0,VALID,99.189,VALID,0.0509425,VALID,17.8782,VALID,217,VALID,0,
2008-06-19, 03:17:00,VALID,915.585,VALID,0,VALID,99.3352,VALID,0.0339617,VALID,17.8757,VALID,217,VALID,0,
2008-06-19, 03:18:00,VALID,915.603,VALID,0,VALID,99.442,VALID,0.0679233,VALID,17.8752,VALID,217,VALID,0.0339134,
2008-06-19, 03:19:00,VALID,915.613,VALID,0,VALID,99.5196,VALID,0.0679233,VALID,17.8687,VALID,199,VALID,0,
2008-06-19, 03:20:00,VALID,915.622,VALID,0,VALID,99.4509,VALID,0.0849042,VALID,17.8463,VALID,190,VALID,0,
2008-06-19, 03:21:00,VALID,915.617,VALID,0,VALID,99.4191,VALID,0.0509425,VALID,17.8523,VALID,189,VALID,0,
2008-06-19, 03:22:00,VALID,915.615,VALID,0,VALID,99.2525,VALID,0.0849042,VALID,17.8882,VALID,133,VALID,0,
2008-06-19, 03:23:00,VALID,915.624,VALID,0,VALID,99.1127,VALID,0.0339617,VALID,17.9113,VALID,107,VALID,0,
2008-06-19, 03:24:00,VALID,915.614,VALID,0,VALID,99.0872,VALID,-0.0509425,VALID,17.9058,VALID,107,VALID,0,
2008-06-19, 03:25:00,VALID,915.607,VALID,0,VALID,99.0822,VALID,-0.0339617,VALID,17.9153,VALID,107,VALID,0,
2008-06-19, 03:26:00,VALID,915.598,VALID,0,VALID,99.058,VALID,-0.0169808,VALID,17.9058,VALID,107,VALID,0,
2008-06-19, 03:27:00,VALID,915.596,VALID,0,VALID,99.1254,VALID,-0.0169808,VALID,17.8666,VALID,107,VALID,0,
2008-06-19, 03:28:00,VALID,915.599,VALID,0,VALID,99.161,VALID,-0.0169808,VALID,17.8212,VALID,107,VALID,0,
2008-06-19, 03:29:00,VALID,915.583,VALID,0,VALID,99.2246,VALID,-0.0169808,VALID,17.8178,VALID,107,VALID,0,
2008-06-19, 03:30:00,VALID,915.585,VALID,0,VALID,99.1991,VALID,-0.0169808,VALID,17.8569,VALID,107,VALID,0,
2008-06-19, 03:31:00,VALID,915.583,VALID,0,VALID,99.0198,VALID,-0.0169808,VALID,17.8991,VALID,115,VALID,0,
2008-06-19, 03:32:00,VALID,915.592,VALID,0,VALID,98.8177,VALID,-0.0169808,VALID,17.925,VALID,115,VALID,0,
2008-06-19, 03:33:00,VALID,915.586,VALID,0,VALID,98.7554,VALID,0,VALID,17.9542,VALID,124,VALID,0,
2008-06-19, 03:34:00,VALID,915.576,VALID,0,VALID,98.7808,VALID,-0.0339617,VALID,17.9577,VALID,142,VALID,0.278706,
2008-06-19, 03:35:00,VALID,915.573,VALID,0,VALID,98.7655,VALID,0,VALID,17.9509,VALID,130,VALID,0.0386905,
2008-06-19, 03:36:00,VALID,915.571,VALID,0,VALID,98.7465,VALID,-0.0509425,VALID,17.9544,VALID,121,VALID,0,